Voltar ao catálogo

NANOSAT 1B

AtivoMilitarSSO
NORAD 35685·PAYLOAD·🇪🇸 Spain

Lançado Jul 29, 2009 de Baikonur Cosmodrome

Loading…

Próximas Passagens (próximas 24 horas)

TLE

AtualizadoSource: Space-Track

Época: Sep 14, 2026, 03:31 UTC

1 35685U 09041E   26257.14668139  .00001542  00000-0  15009-3 0  9991
2 35685  98.1265  18.6993 0048141 230.5061 129.1896 14.93301885927692

Acompanhe NANOSAT 1B em tempo real com AllMySat

Download on the App Store